| time (UTC) | temp C | wind direction | speed KPH | gust KPH | rain 1hr cm | rain 24hr cm | rain mn cm | humidity % | barometer mb |
| 20260506044544 | 18 | 209 | 12.9 | 33.8 | 0.00 | 0.00 | 0.00 | 73 | 1013.2 |
| 20260506043043 | 18 | 189 | 11.3 | 30.6 | 0.00 | 0.00 | 0.00 | 73 | 1013.2 |
| 20260506041556 | 19 | 186 | 17.7 | 32.2 | 0.00 | 0.00 | 0.00 | 73 | 1013.3 |
| 20260506040042 | 19 | 183 | 17.7 | 30.6 | 0.00 | 0.00 | 0.00 | 72 | 1013.3 |
| 20260506034551 | 19 | 192 | 16.1 | 40.2 | 0.00 | 0.00 | 0.00 | 72 | 1013.4 |
| 20260506033043 | 19 | 232 | 16.1 | 37.0 | 0.00 | 0.00 | 0.00 | 71 | 1013.4 |
| 20260506031543 | 20 | 205 | 16.1 | 37.0 | 0.00 | 0.00 | 0.00 | 70 | 1013.4 |
| 20260506030043 | 20 | 205 | 12.9 | 32.2 | 0.00 | 0.00 | 0.00 | 70 | 1013.4 |
| 20260506024543 | 20 | 206 | 12.9 | 30.6 | 0.00 | 0.00 | 0.00 | 70 | 1013.4 |
| 20260506023043 | 20 | 188 | 14.5 | 29.0 | 0.00 | 0.00 | 0.00 | 70 | 1013.5 |
| 20260506021544 | 20 | 173 | 14.5 | 35.4 | 0.00 | 0.00 | 0.00 | 69 | 1013.4 |
| 20260506020051 | 20 | 207 | 12.9 | 29.0 | 0.00 | 0.00 | 0.00 | 69 | 1013.4 |
| 20260506014545 | 20 | 192 | 16.1 | 30.6 | 0.00 | 0.00 | 0.00 | 68 | 1013.4 |
| 20260506013052 | 20 | 213 | 16.1 | 37.0 | 0.00 | 0.00 | 0.00 | 68 | 1013.0 |
| 20260506011543 | 20 | 207 | 12.9 | 33.8 | 0.00 | 0.00 | 0.00 | 68 | 1012.9 |
| 20260506010041 | 20 | 180 | 14.5 | 35.4 | 0.00 | 0.00 | 0.00 | 68 | 1012.7 |
| 20260506004543 | 20 | 199 | 12.9 | 35.4 | 0.00 | 0.00 | 0.00 | 68 | 1012.5 |
| 20260506003042 | 20 | 218 | 16.1 | 35.4 | 0.00 | 0.00 | 0.00 | 67 | 1012.3 |
| 20260506001553 | 21 | 179 | 14.5 | 32.2 | 0.00 | 0.00 | 0.00 | 66 | 1012.4 |
| 20260506000047 | 21 | 177 | 11.3 | 30.6 | 0.00 | 0.00 | 0.00 | 63 | 1012.3 |
| 20260505234541 | 21 | 213 | 16.1 | 41.8 | 0.00 | 0.00 | 0.00 | 61 | 1012.3 |
| 20260505233039 | 22 | 202 | 12.9 | 33.8 | 0.00 | 0.00 | 0.00 | 58 | 1012.2 |
| 20260505231546 | 22 | 153 | 16.1 | 37.0 | 0.00 | 0.00 | 0.00 | 58 | 1012.2 |
| 20260505230108 | 22 | 187 | 14.5 | 37.0 | 0.00 | 0.00 | 0.00 | 58 | 1012.2 |
| 20260505224539 | 22 | 195 | 12.9 | 37.0 | 0.00 | 0.00 | 0.00 | 57 | 1012.2 |
| 20260505223044 | 23 | 165 | 14.5 | 33.8 | 0.00 | 0.00 | 0.00 | 54 | 1012.0 |
| 20260505221556 | 23 | 179 | 17.7 | 40.2 | 0.00 | 0.00 | 0.00 | 53 | 1012.0 |
| 20260505220053 | 23 | 182 | 19.3 | 45.1 | 0.00 | 0.00 | 0.00 | 53 | 1011.9 |
| 20260505214543 | 24 | 183 | 14.5 | 45.1 | 0.00 | 0.00 | 0.00 | 53 | 1011.8 |
| 20260505213041 | 24 | 189 | 14.5 | 30.6 | 0.00 | 0.00 | 0.00 | 52 | 1011.7 |
| 20260505211554 | 25 | 183 | 19.3 | 37.0 | 0.00 | 0.00 | 0.00 | 51 | 1011.7 |
| 20260505210042 | 25 | 169 | 14.5 | 40.2 | 0.00 | 0.00 | 0.00 | 50 | 1011.6 |
| 20260505204549 | 26 | 139 | 14.5 | 37.0 | 0.00 | 0.00 | 0.00 | 48 | 1011.5 |
| 20260505203046 | 26 | 192 | 19.3 | 37.0 | 0.00 | 0.00 | 0.00 | 45 | 1011.5 |
| 20260505201548 | 27 | 244 | 16.1 | 45.1 | 0.00 | 0.00 | 0.00 | 35 | 1011.7 |
| 20260505200045 | 27 | 185 | 20.9 | 41.8 | 0.00 | 0.00 | 0.00 | 35 | 1011.9 |
| 20260505194544 | 27 | 189 | 22.5 | 41.8 | 0.00 | 0.00 | 0.00 | 34 | 1011.9 |
| 20260505193055 | 28 | 205 | 20.9 | 35.4 | 0.00 | 0.00 | 0.00 | 33 | 1012.1 |
| 20260505191544 | 28 | 258 | 17.7 | 40.2 | 0.00 | 0.00 | 0.00 | 32 | 1012.1 |
| 20260505190043 | 28 | 192 | 17.7 | 35.4 | 0.00 | 0.00 | 0.00 | 34 | 1012.0 |
| 20260505184545 | 28 | 181 | 16.1 | 33.8 | 0.00 | 0.00 | 0.00 | 34 | 1012.2 |
| 20260505183047 | 28 | 230 | 16.1 | 32.2 | 0.00 | 0.00 | 0.00 | 36 | 1012.1 |
| 20260505181546 | 27 | 234 | 19.3 | 38.6 | 0.00 | 0.00 | 0.00 | 36 | 1012.5 |
| 20260505180045 | 27 | 231 | 14.5 | 32.2 | 0.00 | 0.00 | 0.00 | 38 | 1012.7 |
| 20260505174542 | 27 | 222 | 16.1 | 27.4 | 0.00 | 0.00 | 0.00 | 40 | 1012.9 |
| 20260505173042 | 27 | 201 | 14.5 | 27.4 | 0.00 | 0.00 | 0.00 | 40 | 1012.9 |
| 20260505171546 | 27 | 245 | 12.9 | 30.6 | 0.00 | 0.00 | 0.00 | 40 | 1013.2 |
| 20260505170045 | 27 | 232 | 12.9 | 30.6 | 0.00 | 0.00 | 0.00 | 40 | 1013.1 |
| 20260505164549 | 27 | 212 | 11.3 | 25.7 | 0.00 | 0.00 | 0.00 | 40 | 1013.1 |
| 20260505163045 | 26 | 182 | 14.5 | 32.2 | 0.00 | 0.00 | 0.00 | 41 | 1013.2 |
| 20260505161547 | 26 | 249 | 9.7 | 22.5 | 0.00 | 0.00 | 0.00 | 43 | 1013.3 |
| 20260505153040 | 25 | 194 | 12.9 | 29.0 | 0.00 | 0.00 | 0.00 | 47 | 1013.5 |
| 20260505151545 | 25 | 276 | 12.9 | 27.4 | 0.00 | 0.00 | 0.00 | 47 | 1013.4 |
| 20260505124549 | 20 | 237 | 11.3 | 29.0 | 0.00 | 0.00 | 0.00 | 62 | 1013.4 |
| 20260505123041 | 19 | 199 | 12.9 | 25.7 | 0.00 | 0.00 | 0.00 | 63 | 1013.5 |
| 20260505121544 | 18 | 252 | 12.9 | 30.6 | 0.00 | 0.00 | 0.00 | 66 | 1013.3 |
| 20260505120043 | 18 | 204 | 14.5 | 33.8 | 0.00 | 0.00 | 0.00 | 66 | 1013.4 |
| 20260505114542 | 18 | 221 | 14.5 | 29.0 | 0.00 | 0.00 | 0.00 | 67 | 1013.2 |
| 20260505113045 | 17 | 242 | 12.9 | 24.1 | 0.00 | 0.00 | 0.00 | 68 | 1013.2 |
| 20260505111545 | 17 | 236 | 8.0 | 25.7 | 0.00 | 0.00 | 0.00 | 69 | 1013.2 |
| 20260505101549 | 17 | 219 | 12.9 | 25.7 | 0.00 | 0.00 | 0.00 | 69 | 1012.9 |
| 20260505100045 | 17 | 258 | 12.9 | 27.4 | 0.00 | 0.00 | 0.00 | 68 | 1012.7 |
| 20260505094544 | 17 | 230 | 11.3 | 22.5 | 0.00 | 0.00 | 0.00 | 68 | 1012.5 |
| 20260505093043 | 17 | 191 | 12.9 | 29.0 | 0.00 | 0.00 | 0.00 | 68 | 1012.4 |
| 20260505091541 | 17 | 252 | 11.3 | 25.7 | 0.00 | 0.00 | 0.00 | 69 | 1012.4 |
| 20260505090045 | 17 | 232 | 9.7 | 22.5 | 0.00 | 0.00 | 0.00 | 69 | 1012.3 |
| 20260505084550 | 17 | 227 | 11.3 | 22.5 | 0.00 | 0.00 | 0.00 | 69 | 1012.3 |
| 20260505083055 | 17 | 185 | 9.7 | 22.5 | 0.00 | 0.00 | 0.00 | 70 | 1012.4 |
| 20260505081552 | 17 | 254 | 12.9 | 27.4 | 0.00 | 0.00 | 0.00 | 70 | 1012.3 |
| 20260505080049 | 17 | 204 | 11.3 | 27.4 | 0.00 | 0.00 | 0.00 | 71 | 1012.4 |
| 20260505074548 | 16 | 234 | 6.4 | 27.4 | 0.00 | 0.00 | 0.00 | 72 | 1012.4 |
| 20260505073044 | 16 | 240 | 8.0 | 22.5 | 0.00 | 0.00 | 0.00 | 73 | 1012.3 |
| 20260505071549 | 16 | 226 | 12.9 | 27.4 | 0.00 | 0.00 | 0.00 | 74 | 1012.3 |
| 20260505070042 | 16 | 211 | 9.7 | 20.9 | 0.00 | 0.00 | 0.00 | 74 | 1012.3 |
| 20260505064543 | 16 | 213 | 9.7 | 29.0 | 0.00 | 0.00 | 0.00 | 75 | 1012.2 |
| 20260505063043 | 16 | 213 | 12.9 | 22.5 | 0.00 | 0.00 | 0.00 | 74 | 1012.2 |
| 20260505061542 | 16 | 239 | 9.7 | 27.4 | 0.00 | 0.00 | 0.00 | 74 | 1012.2 |
| 20260505060049 | 16 | 231 | 9.7 | 24.1 | 0.00 | 0.00 | 0.00 | 74 | 1012.2 |
| 20260505054554 | 17 | 213 | 11.3 | 25.7 | 0.00 | 0.00 | 0.00 | 73 | 1012.2 |
| 20260505053046 | 17 | 192 | 12.9 | 25.7 | 0.00 | 0.00 | 0.00 | 73 | 1012.2 |
| 20260505051544 | 17 | 246 | 12.9 | 27.4 | 0.00 | 0.00 | 0.00 | 73 | 1012.3 |